Location: Newark
(25.4297°S, 49.2719°W)
Time: 02:26:58
(UTC+00:00)

Vanguard 1 Rocket - Pass Details

Date: 26 November 2019
Orbit: 650 x 4226 km, 34.3° (Epoch: 11 December)

Event Time Altitude Azimuth Distance (km) Brightness Sun altitude
Rises 12:45:14 0° 334° (NNW) 4,601 10.9 57.8°
Reaches altitude 10° 12:48:01 10° 343° (NNW) 3,984 10.7 58.4°
Maximum altitude 12:58:24 39° 48° (NE) 3,431 11.5 60.8°
Drops below altitude 10° 13:16:35 10° 108° (ESE) 6,870 12.4 64.9°
Sets 13:23:19 0° 114° (ESE) 8,245 12.6 66.4°
